1998-067VQ

Last updated on Mon Jan 08 2024 00:02:06 GMT+0000 (Coordinated Universal Time)

1 57312U 98067VQ 24007.39803906 .04894142 12154-4 95583-3 0 9991 2 57312 51.6137 12.1610 0002521 80.5936 279.5371 16.30906486 29025

Satellite not in orbit